Location: Kelshall
(52.0000°N, 0.0500°W)
Time: 14:09:42
(UTC+00:00)

SPOT 1/Viking Rocket - Pass Details

Date: 18 September 2020
Orbit: 777 x 794 km, 98.5° (Epoch: 27 October)

Event Time Altitude Azimuth Distance (km) Brightness Sun altitude
Exits shadow 21:14:23 79° 224° (SW) 806 3.5 -26.9°
Maximum altitude 21:14:34 81° 255° (WSW) 803 3.5 -26.9°
Drops below altitude 10° 21:19:46 10° 343° (NNW) 2,352 6.8 -27.5°
Sets 21:22:06 0° 345° (NNW) 3,283 7.7 -27.7°
